Home Latest Filings Latest Buys Latest Sells Institutions Derivatives Hot Buys Data Screener Email Alerts Insider Charts
TPL - As of  10/18/19, 04:46:14 AM:   167 Insider Transactions.

Sector: Financial    Industry: Real Estate Development
Prev Close:$169.99  Avg Vol(3m): 9,092  P/E: 39.40  EPS: 4.31

Email this page to a friend.    Institutional Transactions for TPL

                Buy: Blue    Sell: Red
Non-meaningful transactions (gifts, grants, etc.) are automatically filtered out for quicker actions.
Buy(P) /
Sell(S)
P/S date Filed Date Company Symbol Insider Relationship Share Amt. Unit Price Total Proceeds Shares Owned Return(1m) Details
P 2019-10-16 2019-10-17 11:24:48.0 TEXAS PACIFIC LAND TRUST TPL HORIZON KINETICS ASSET MANAGEMENT LLC 10% owner 9 $618.50 $5,566.50 313,221 view
P 2019-10-15 2019-10-16 13:24:39.0 TEXAS PACIFIC LAND TRUST TPL HORIZON KINETICS ASSET MANAGEMENT LLC 10% owner 9 $608.46 $5,476.14 313,212 view
P 2019-10-14 2019-10-15 13:46:13.0 TEXAS PACIFIC LAND TRUST TPL HORIZON KINETICS ASSET MANAGEMENT LLC 10% owner 9 $609.45 $5,485.05 313,203 view
P 2019-10-11 2019-10-15 13:46:13.0 TEXAS PACIFIC LAND TRUST TPL HORIZON KINETICS ASSET MANAGEMENT LLC 10% owner 9 $621.50 $5,593.50 313,194 view
P 2019-10-10 2019-10-11 12:08:09.0 TEXAS PACIFIC LAND TRUST TPL HORIZON KINETICS ASSET MANAGEMENT LLC 10% owner 7 $609.46 $4,266.22 313,185 view
P 2019-10-09 2019-10-10 11:43:54.0 TEXAS PACIFIC LAND TRUST TPL HORIZON KINETICS ASSET MANAGEMENT LLC 10% owner 7 $618.50 $4,329.50 313,178 view
P 2019-10-08 2019-10-09 12:02:59.0 TEXAS PACIFIC LAND TRUST TPL HORIZON KINETICS ASSET MANAGEMENT LLC 10% owner 7 $603.10 $4,221.70 313,171 view
P 2019-10-07 2019-10-08 11:39:37.0 TEXAS PACIFIC LAND TRUST TPL HORIZON KINETICS ASSET MANAGEMENT LLC 10% owner 7 $606.25 $4,243.75 313,164 view
P 2019-10-04 2019-10-08 09:44:20.0 TEXAS PACIFIC LAND TRUST TPL TESSLER ALLAN R 500 $603.86 $301,930.00 10,830 view
P 2019-10-04 2019-10-07 12:19:03.0 TEXAS PACIFIC LAND TRUST TPL HORIZON KINETICS ASSET MANAGEMENT LLC 10% owner 5 $600.03 $3,000.15 313,157 view
P 2019-10-03 2019-10-04 11:16:21.0 TEXAS PACIFIC LAND TRUST TPL HORIZON KINETICS ASSET MANAGEMENT LLC 10% owner 5 $620.87 $3,104.35 313,152 view
P 2019-10-02 2019-10-03 12:20:29.0 TEXAS PACIFIC LAND TRUST TPL HORIZON KINETICS ASSET MANAGEMENT LLC 10% owner 5 $610.98 $3,054.90 313,147 view
P 2019-10-01 2019-10-02 12:39:59.0 TEXAS PACIFIC LAND TRUST TPL HORIZON KINETICS ASSET MANAGEMENT LLC 10% owner 10 $645.35 $6,453.50 313,142 view
P 2019-09-30 2019-10-01 11:45:01.0 TEXAS PACIFIC LAND TRUST TPL HORIZON KINETICS ASSET MANAGEMENT LLC 10% owner 5 $643.24 $3,216.20 313,132 view
P 2019-09-27 2019-09-30 12:05:00.0 TEXAS PACIFIC LAND TRUST TPL HORIZON KINETICS ASSET MANAGEMENT LLC 10% owner 5 $639.70 $3,198.50 313,127 view
P 2019-09-26 2019-09-27 14:14:17.0 TEXAS PACIFIC LAND TRUST TPL HORIZON KINETICS ASSET MANAGEMENT LLC 10% owner 5 $642.55 $3,212.75 313,122 view
P 2019-09-25 2019-09-26 15:59:25.0 TEXAS PACIFIC LAND TRUST TPL HORIZON KINETICS ASSET MANAGEMENT LLC 10% owner 5 $646.31 $3,231.55 313,117 view
P 2019-09-24 2019-09-25 13:47:12.0 TEXAS PACIFIC LAND TRUST TPL HORIZON KINETICS ASSET MANAGEMENT LLC 10% owner 5 $651.51 $3,257.55 313,112 view
P 2019-09-17 2019-09-18 12:30:51.0 TEXAS PACIFIC LAND TRUST TPL HORIZON KINETICS ASSET MANAGEMENT LLC 10% owner 43 $698.31 $30,027.30 301,507 view
P 2019-09-16 2019-09-17 12:54:16.0 TEXAS PACIFIC LAND TRUST TPL HORIZON KINETICS ASSET MANAGEMENT LLC 10% owner 49 $705.71 $34,579.80 301,464 view
P 2019-09-13 2019-09-16 12:24:46.0 TEXAS PACIFIC LAND TRUST TPL HORIZON KINETICS ASSET MANAGEMENT LLC 10% owner 49 $673.78 $33,015.20 301,415 view
P 2019-09-12 2019-09-13 12:32:24.0 TEXAS PACIFIC LAND TRUST TPL HORIZON KINETICS ASSET MANAGEMENT LLC 10% owner 49 $663.00 $32,487.00 301,366 view
P 2019-09-11 2019-09-12 11:32:55.0 TEXAS PACIFIC LAND TRUST TPL HORIZON KINETICS ASSET MANAGEMENT LLC 10% owner 49 $655.86 $32,137.10 301,317 view
P 2019-09-10 2019-09-11 11:11:43.0 TEXAS PACIFIC LAND TRUST TPL HORIZON KINETICS ASSET MANAGEMENT LLC 10% owner 49 $659.40 $32,310.60 301,268 view
P 2019-09-09 2019-09-10 10:53:10.0 TEXAS PACIFIC LAND TRUST TPL HORIZON KINETICS ASSET MANAGEMENT LLC 10% owner 49 $686.90 $33,658.10 301,219 view
P 2019-09-06 2019-09-09 11:30:33.0 TEXAS PACIFIC LAND TRUST TPL HORIZON KINETICS ASSET MANAGEMENT LLC 10% owner 49 $697.48 $34,176.50 301,170 view
P 2019-09-05 2019-09-06 11:19:48.0 TEXAS PACIFIC LAND TRUST TPL HORIZON KINETICS ASSET MANAGEMENT LLC 10% owner 49 $706.50 $34,618.50 301,121 view
P 2019-09-04 2019-09-05 12:12:14.0 TEXAS PACIFIC LAND TRUST TPL HORIZON KINETICS ASSET MANAGEMENT LLC 10% owner 49 $670.27 $32,843.20 301,072 view
P 2019-09-03 2019-09-04 10:59:14.0 TEXAS PACIFIC LAND TRUST TPL HORIZON KINETICS ASSET MANAGEMENT LLC 10% owner 49 $653.89 $32,040.60 301,023 view
P 2019-08-30 2019-09-03 11:40:20.0 TEXAS PACIFIC LAND TRUST TPL HORIZON KINETICS ASSET MANAGEMENT LLC 10% owner 49 $654.60 $32,075.40 300,974 view
P 2019-08-29 2019-08-30 12:52:04.0 TEXAS PACIFIC LAND TRUST TPL HORIZON KINETICS ASSET MANAGEMENT LLC 10% owner 54 $656.10 $35,429.40 300,925 view
P 2019-08-28 2019-08-29 11:10:49.0 TEXAS PACIFIC LAND TRUST TPL HORIZON KINETICS ASSET MANAGEMENT LLC 10% owner 49 $641.58 $31,437.40 300,871 view
P 2019-08-27 2019-08-28 11:22:29.0 TEXAS PACIFIC LAND TRUST TPL HORIZON KINETICS ASSET MANAGEMENT LLC 10% owner 49 $637.50 $31,237.50 300,822 view
P 2019-08-26 2019-08-27 12:05:12.0 TEXAS PACIFIC LAND TRUST TPL HORIZON KINETICS ASSET MANAGEMENT LLC 10% owner 49 $636.08 $31,167.90 300,773 view
P 2019-08-23 2019-08-26 11:32:44.0 TEXAS PACIFIC LAND TRUST TPL HORIZON KINETICS ASSET MANAGEMENT LLC 10% owner 49 $668.39 $32,751.10 300,724 view
P 2019-08-22 2019-08-23 10:52:38.0 TEXAS PACIFIC LAND TRUST TPL HORIZON KINETICS ASSET MANAGEMENT LLC 10% owner 49 $674.50 $33,050.50 300,675 view
P 2019-08-21 2019-08-22 11:27:04.0 TEXAS PACIFIC LAND TRUST TPL HORIZON KINETICS ASSET MANAGEMENT LLC 10% owner 49 $669.37 $32,799.10 300,626 view
P 2019-08-20 2019-08-21 10:59:49.0 TEXAS PACIFIC LAND TRUST TPL HORIZON KINETICS ASSET MANAGEMENT LLC 10% owner 49 $666.50 $32,658.50 300,577 view
P 2019-08-19 2019-08-20 11:07:15.0 TEXAS PACIFIC LAND TRUST TPL HORIZON KINETICS ASSET MANAGEMENT LLC 10% owner 49 $679.36 $33,288.60 300,528 view
P 2019-08-16 2019-08-19 12:13:27.0 TEXAS PACIFIC LAND TRUST TPL HORIZON KINETICS ASSET MANAGEMENT LLC 10% owner 49 $671.46 $32,901.50 300,479 view
P 2019-08-15 2019-08-16 11:12:23.0 TEXAS PACIFIC LAND TRUST TPL HORIZON KINETICS ASSET MANAGEMENT LLC 10% owner 49 $649.73 $31,836.80 300,430 view
P 2019-08-14 2019-08-15 11:16:20.0 TEXAS PACIFIC LAND TRUST TPL HORIZON KINETICS ASSET MANAGEMENT LLC 10% owner 188 $641.00 $120,508.00 300,381 view
P 2019-08-13 2019-08-14 11:36:36.0 TEXAS PACIFIC LAND TRUST TPL HORIZON KINETICS ASSET MANAGEMENT LLC 10% owner 49 $688.78 $33,750.20 300,193 view
P 2019-08-12 2019-08-13 11:27:18.0 TEXAS PACIFIC LAND TRUST TPL HORIZON KINETICS ASSET MANAGEMENT LLC 10% owner 49 $679.65 $33,302.90 300,144 view
P 2019-08-09 2019-08-12 10:07:19.0 TEXAS PACIFIC LAND TRUST TPL HORIZON KINETICS ASSET MANAGEMENT LLC 10% owner 49 $673.70 $33,011.30 300,095 view
P 2019-08-08 2019-08-09 11:06:21.0 TEXAS PACIFIC LAND TRUST TPL HORIZON KINETICS ASSET MANAGEMENT LLC 10% owner 49 $674.39 $33,045.10 300,046 view
P 2019-08-07 2019-08-08 10:57:18.0 TEXAS PACIFIC LAND TRUST TPL HORIZON KINETICS ASSET MANAGEMENT LLC 10% owner 49 $659.12 $32,296.90 299,997 view
P 2019-08-06 2019-08-07 10:19:07.0 TEXAS PACIFIC LAND TRUST TPL HORIZON KINETICS ASSET MANAGEMENT LLC 10% owner 49 $681.00 $33,369.00 299,948 view
P 2019-08-05 2019-08-06 10:12:53.0 TEXAS PACIFIC LAND TRUST TPL HORIZON KINETICS ASSET MANAGEMENT LLC 10% owner 49 $689.76 $33,798.20 299,899 view
P 2019-08-02 2019-08-05 09:57:00.0 TEXAS PACIFIC LAND TRUST TPL HORIZON KINETICS ASSET MANAGEMENT LLC 10% owner 49 $720.23 $35,291.30 299,850 view
P 2019-08-01 2019-08-02 10:40:44.0 TEXAS PACIFIC LAND TRUST TPL HORIZON KINETICS ASSET MANAGEMENT LLC 10% owner 49 $759.85 $37,232.60 299,801 view
P 2019-07-31 2019-08-01 14:34:05.0 TEXAS PACIFIC LAND TRUST TPL HORIZON KINETICS ASSET MANAGEMENT LLC 10% owner 49 $800.00 $39,200.00 299,752 view
P 2019-07-30 2019-07-31 11:19:53.0 TEXAS PACIFIC LAND TRUST TPL HORIZON KINETICS ASSET MANAGEMENT LLC 10% owner 49 $755.49 $37,019.00 299,703 view
P 2019-07-29 2019-07-30 16:30:11.0 TEXAS PACIFIC LAND TRUST TPL HORIZON KINETICS ASSET MANAGEMENT LLC 10% owner 49 $740.50 $36,284.50 299,654 view
P 2019-07-26 2019-07-29 11:37:23.0 TEXAS PACIFIC LAND TRUST TPL HORIZON KINETICS ASSET MANAGEMENT LLC 10% owner 49 $749.50 $36,725.50 299,605 view
P 2019-07-25 2019-07-26 11:36:36.0 TEXAS PACIFIC LAND TRUST TPL HORIZON KINETICS ASSET MANAGEMENT LLC 10% owner 49 $744.49 $36,480.00 299,556 view
P 2019-07-24 2019-07-25 12:05:46.0 TEXAS PACIFIC LAND TRUST TPL HORIZON KINETICS ASSET MANAGEMENT LLC 10% owner 49 $753.12 $36,902.90 299,507 view
P 2019-07-23 2019-07-24 11:08:53.0 TEXAS PACIFIC LAND TRUST TPL HORIZON KINETICS ASSET MANAGEMENT LLC 10% owner 49 $749.44 $36,722.60 299,458 view
P 2019-07-22 2019-07-23 10:40:43.0 TEXAS PACIFIC LAND TRUST TPL HORIZON KINETICS ASSET MANAGEMENT LLC 10% owner 49 $768.84 $37,673.20 299,409 view
P 2019-07-19 2019-07-22 11:31:08.0 TEXAS PACIFIC LAND TRUST TPL HORIZON KINETICS ASSET MANAGEMENT LLC 10% owner 49 $764.50 $37,460.50 299,360 view
P 2019-07-18 2019-07-19 11:01:27.0 TEXAS PACIFIC LAND TRUST TPL HORIZON KINETICS ASSET MANAGEMENT LLC 10% owner 49 $759.50 $37,215.50 299,311 view
P 2019-07-17 2019-07-18 16:15:57.0 TEXAS PACIFIC LAND TRUST TPL HORIZON KINETICS ASSET MANAGEMENT LLC 10% owner 157 $769.49 $120,810.00 299,262 view
P 2019-07-16 2019-07-17 10:55:54.0 TEXAS PACIFIC LAND TRUST TPL HORIZON KINETICS ASSET MANAGEMENT LLC 10% owner 49 $779.61 $38,200.90 299,105 view
P 2019-07-15 2019-07-16 12:12:24.0 TEXAS PACIFIC LAND TRUST TPL HORIZON KINETICS ASSET MANAGEMENT LLC 10% owner 49 $795.00 $38,955.00 299,056 view
P 2019-07-12 2019-07-15 11:12:38.0 TEXAS PACIFIC LAND TRUST TPL HORIZON KINETICS ASSET MANAGEMENT LLC 10% owner 49 $798.15 $39,109.40 299,007 view
P 2019-07-11 2019-07-12 11:46:55.0 TEXAS PACIFIC LAND TRUST TPL HORIZON KINETICS ASSET MANAGEMENT LLC 10% owner 49 $808.89 $39,635.60 298,958 view
P 2019-07-10 2019-07-11 12:10:52.0 TEXAS PACIFIC LAND TRUST TPL HORIZON KINETICS ASSET MANAGEMENT LLC 10% owner 50 $797.58 $39,879.00 298,909 view
P 2019-07-08 2019-07-09 11:44:52.0 TEXAS PACIFIC LAND TRUST TPL HORIZON KINETICS ASSET MANAGEMENT LLC 10% owner 50 $810.20 $40,510.00 298,809 view
P 2019-07-05 2019-07-08 11:16:13.0 TEXAS PACIFIC LAND TRUST TPL HORIZON KINETICS ASSET MANAGEMENT LLC 10% owner 50 $798.67 $39,933.50 298,759 view
P 2019-07-03 2019-07-05 11:22:06.0 TEXAS PACIFIC LAND TRUST TPL HORIZON KINETICS ASSET MANAGEMENT LLC 10% owner 50 $793.74 $39,687.00 298,709 view
P 2019-07-02 2019-07-03 10:59:55.0 TEXAS PACIFIC LAND TRUST TPL HORIZON KINETICS ASSET MANAGEMENT LLC 10% owner 50 $811.04 $40,552.00 298,659 view
P 2019-07-01 2019-07-02 12:23:21.0 TEXAS PACIFIC LAND TRUST TPL HORIZON KINETICS ASSET MANAGEMENT LLC 10% owner 50 $799.99 $39,999.50 298,609 view
P 2019-06-28 2019-07-01 11:27:16.0 TEXAS PACIFIC LAND TRUST TPL HORIZON KINETICS ASSET MANAGEMENT LLC 10% owner 50 $795.24 $39,762.00 298,559 view
P 2019-06-27 2019-06-28 11:17:44.0 TEXAS PACIFIC LAND TRUST TPL HORIZON KINETICS ASSET MANAGEMENT LLC 10% owner 50 $785.98 $39,299.00 298,509 view
P 2019-06-26 2019-06-27 11:24:38.0 TEXAS PACIFIC LAND TRUST TPL HORIZON KINETICS ASSET MANAGEMENT LLC 10% owner 50 $817.18 $40,859.00 298,459 view
P 2019-06-25 2019-06-26 14:01:20.0 TEXAS PACIFIC LAND TRUST TPL HORIZON KINETICS ASSET MANAGEMENT LLC 10% owner 50 $787.20 $39,360.00 298,409 view
P 2019-06-24 2019-06-25 10:58:50.0 TEXAS PACIFIC LAND TRUST TPL HORIZON KINETICS ASSET MANAGEMENT LLC 10% owner 50 $782.12 $39,106.00 298,359 view
P 2019-06-21 2019-06-24 11:50:01.0 TEXAS PACIFIC LAND TRUST TPL HORIZON KINETICS ASSET MANAGEMENT LLC 10% owner 50 $791.07 $39,553.50 298,309 view
P 2019-06-20 2019-06-21 11:08:33.0 TEXAS PACIFIC LAND TRUST TPL HORIZON KINETICS ASSET MANAGEMENT LLC 10% owner 50 $796.72 $39,836.00 298,259 view
P 2019-06-19 2019-06-20 11:15:25.0 TEXAS PACIFIC LAND TRUST TPL HORIZON KINETICS ASSET MANAGEMENT LLC 10% owner 50 $755.88 $37,794.00 298,209 view
P 2019-06-18 2019-06-19 11:19:03.0 TEXAS PACIFIC LAND TRUST TPL HORIZON KINETICS ASSET MANAGEMENT LLC 10% owner 50 $735.09 $36,754.50 298,159 view
P 2019-06-17 2019-06-18 12:10:32.0 TEXAS PACIFIC LAND TRUST TPL HORIZON KINETICS ASSET MANAGEMENT LLC 10% owner 50 $718.96 $35,948.00 298,109 view
P 2019-06-14 2019-06-17 12:27:14.0 TEXAS PACIFIC LAND TRUST TPL HORIZON KINETICS ASSET MANAGEMENT LLC 10% owner 50 $739.99 $36,999.50 298,059 view
P 2019-06-13 2019-06-14 13:44:15.0 TEXAS PACIFIC LAND TRUST TPL HORIZON KINETICS ASSET MANAGEMENT LLC 10% owner 50 $726.13 $36,306.50 298,009 view
P 2019-06-12 2019-06-13 12:30:20.0 TEXAS PACIFIC LAND TRUST TPL HORIZON KINETICS ASSET MANAGEMENT LLC 10% owner 50 $744.22 $37,211.00 297,959 view
P 2019-06-11 2019-06-12 11:14:10.0 TEXAS PACIFIC LAND TRUST TPL HORIZON KINETICS ASSET MANAGEMENT LLC 10% owner 50 $771.11 $38,555.50 297,909 view
P 2019-06-10 2019-06-11 11:02:54.0 TEXAS PACIFIC LAND TRUST TPL HORIZON KINETICS ASSET MANAGEMENT LLC 10% owner 50 $764.77 $38,238.50 297,859 view
P 2019-06-07 2019-06-10 11:15:34.0 TEXAS PACIFIC LAND TRUST TPL HORIZON KINETICS ASSET MANAGEMENT LLC 10% owner 50 $749.91 $37,495.50 297,809 view
P 2019-06-06 2019-06-07 11:14:59.0 TEXAS PACIFIC LAND TRUST TPL HORIZON KINETICS ASSET MANAGEMENT LLC 10% owner 175 $740.80 $129,640.00 297,759 view
P 2019-06-05 2019-06-06 11:17:38.0 TEXAS PACIFIC LAND TRUST TPL HORIZON KINETICS ASSET MANAGEMENT LLC 10% owner 50 $730.07 $36,503.50 297,584 view
P 2019-06-04 2019-06-05 11:45:35.0 TEXAS PACIFIC LAND TRUST TPL HORIZON KINETICS ASSET MANAGEMENT LLC 10% owner 50 $732.78 $36,639.00 297,534 view
P 2019-06-03 2019-06-04 11:04:03.0 TEXAS PACIFIC LAND TRUST TPL HORIZON KINETICS ASSET MANAGEMENT LLC 10% owner 50 $738.78 $36,939.00 297,484 view
P 2019-05-31 2019-06-03 11:32:02.0 TEXAS PACIFIC LAND TRUST TPL HORIZON KINETICS ASSET MANAGEMENT LLC 10% owner 50 $752.07 $37,603.50 297,434 view
P 2019-05-30 2019-05-31 10:47:25.0 TEXAS PACIFIC LAND TRUST TPL HORIZON KINETICS ASSET MANAGEMENT LLC 10% owner 50 $799.00 $39,950.00 297,384 view
P 2019-05-29 2019-05-30 11:21:02.0 TEXAS PACIFIC LAND TRUST TPL HORIZON KINETICS ASSET MANAGEMENT LLC 10% owner 50 $813.21 $40,660.50 297,334 view
P 2019-05-28 2019-05-29 11:12:40.0 TEXAS PACIFIC LAND TRUST TPL HORIZON KINETICS ASSET MANAGEMENT LLC 10% owner 50 $790.32 $39,516.00 297,284 view
P 2019-05-24 2019-05-28 12:38:35.0 TEXAS PACIFIC LAND TRUST TPL HORIZON KINETICS ASSET MANAGEMENT LLC 10% owner 50 $790.09 $39,504.50 297,234 view
P 2019-05-23 2019-05-24 11:47:35.0 TEXAS PACIFIC LAND TRUST TPL HORIZON KINETICS ASSET MANAGEMENT LLC 10% owner 36 $792.09 $28,515.20 297,184 view
P 2019-05-22 2019-05-23 11:53:52.0 TEXAS PACIFIC LAND TRUST TPL HORIZON KINETICS ASSET MANAGEMENT LLC 10% owner 36 $831.23 $29,924.30 297,148 view
P 2019-05-21 2019-05-22 11:05:17.0 TEXAS PACIFIC LAND TRUST TPL HORIZON KINETICS ASSET MANAGEMENT LLC 10% owner 36 $849.48 $30,581.30 297,112 view
P 2019-05-20 2019-05-21 10:42:01.0 TEXAS PACIFIC LAND TRUST TPL HORIZON KINETICS ASSET MANAGEMENT LLC 10% owner 36 $860.09 $30,963.20 297,076 view
P 2019-05-17 2019-05-20 10:15:03.0 TEXAS PACIFIC LAND TRUST TPL HORIZON KINETICS ASSET MANAGEMENT LLC 10% owner 36 $845.42 $30,435.10 297,040 view
P 2019-05-16 2019-05-17 10:05:01.0 TEXAS PACIFIC LAND TRUST TPL HORIZON KINETICS ASSET MANAGEMENT LLC 10% owner 36 $842.57 $30,332.50 297,004 view
P 2019-05-15 2019-05-16 11:35:31.0 TEXAS PACIFIC LAND TRUST TPL HORIZON KINETICS ASSET MANAGEMENT LLC 10% owner 36 $837.84 $30,162.20 296,968 view
P 2019-05-14 2019-05-15 11:35:46.0 TEXAS PACIFIC LAND TRUST TPL HORIZON KINETICS ASSET MANAGEMENT LLC 10% owner 36 $805.73 $29,006.30 296,932 view
P 2019-05-13 2019-05-14 10:55:25.0 TEXAS PACIFIC LAND TRUST TPL HORIZON KINETICS ASSET MANAGEMENT LLC 10% owner 36 $787.20 $28,339.20 296,896 view
P 2019-05-10 2019-05-13 11:34:04.0 TEXAS PACIFIC LAND TRUST TPL HORIZON KINETICS ASSET MANAGEMENT LLC 10% owner 36 $780.78 $28,108.10 296,860 view
P 2019-05-09 2019-05-10 11:14:32.0 TEXAS PACIFIC LAND TRUST TPL HORIZON KINETICS ASSET MANAGEMENT LLC 10% owner 36 $779.99 $28,079.60 296,824 view
P 2019-05-08 2019-05-09 11:05:25.0 TEXAS PACIFIC LAND TRUST TPL HORIZON KINETICS ASSET MANAGEMENT LLC 10% owner 36 $799.98 $28,799.30 296,788 view
P 2019-05-07 2019-05-08 11:31:45.0 TEXAS PACIFIC LAND TRUST TPL HORIZON KINETICS ASSET MANAGEMENT LLC 10% owner 36 $781.21 $28,123.60 296,752 view
P 2019-05-06 2019-05-07 12:36:17.0 TEXAS PACIFIC LAND TRUST TPL HORIZON KINETICS ASSET MANAGEMENT LLC 10% owner 36 $807.23 $29,060.30 296,716 view
P 2019-05-03 2019-05-06 11:29:34.0 TEXAS PACIFIC LAND TRUST TPL KINETICS ASSET MANAGEMENT LLC various various various 10% owner 36 $807.20 $29,059.20 204,232 view
P 2019-05-02 2019-05-03 11:49:03.0 TEXAS PACIFIC LAND TRUST TPL KINETICS ASSET MANAGEMENT LLC various various various 10% owner 36 $819.99 $29,519.60 204,196 view
P 2019-05-01 2019-05-02 11:16:18.0 TEXAS PACIFIC LAND TRUST TPL KINETICS ASSET MANAGEMENT LLC various various various 10% owner 36 $806.68 $29,040.50 204,160 view
P 2019-04-30 2019-05-01 11:32:25.0 TEXAS PACIFIC LAND TRUST TPL KINETICS ASSET MANAGEMENT LLC various various various 10% owner 36 $809.65 $29,147.40 204,124 view
P 2019-04-29 2019-04-30 11:35:52.0 TEXAS PACIFIC LAND TRUST TPL KINETICS ASSET MANAGEMENT LLC various various various 10% owner 36 $837.93 $30,165.50 204,088 view
P 2019-04-26 2019-04-29 11:14:27.0 TEXAS PACIFIC LAND TRUST TPL KINETICS ASSET MANAGEMENT LLC various various various 10% owner 36 $879.00 $31,644.00 204,052 view
P 2019-04-25 2019-04-26 11:08:17.0 TEXAS PACIFIC LAND TRUST TPL KINETICS ASSET MANAGEMENT LLC various various various 10% owner 36 $897.25 $32,301.00 204,016 view
P 2019-04-24 2019-04-25 12:05:20.0 TEXAS PACIFIC LAND TRUST TPL KINETICS ASSET MANAGEMENT LLC various various various 10% owner 36 $899.87 $32,395.30 203,980 view
P 2019-04-23 2019-04-24 11:15:04.0 TEXAS PACIFIC LAND TRUST TPL KINETICS ASSET MANAGEMENT LLC various various various 10% owner 36 $898.87 $32,359.30 203,944 view
P 2019-04-22 2019-04-23 12:23:20.0 TEXAS PACIFIC LAND TRUST TPL KINETICS ASSET MANAGEMENT LLC various various various 10% owner 36 $896.07 $32,258.50 203,908 view
P 2019-04-18 2019-04-22 11:00:19.0 TEXAS PACIFIC LAND TRUST TPL KINETICS ASSET MANAGEMENT LLC various various various 10% owner 42 $899.92 $37,796.60 203,872 view
P 2019-04-17 2019-04-18 11:40:32.0 TEXAS PACIFIC LAND TRUST TPL KINETICS ASSET MANAGEMENT LLC various various various 10% owner 42 $887.23 $37,263.70 203,830 view
P 2019-04-16 2019-04-17 10:59:36.0 TEXAS PACIFIC LAND TRUST TPL KINETICS ASSET MANAGEMENT LLC various various various 10% owner 42 $898.49 $37,736.60 203,788 view
P 2019-04-15 2019-04-16 11:41:36.0 TEXAS PACIFIC LAND TRUST TPL KINETICS ASSET MANAGEMENT LLC various various various 10% owner 42 $903.05 $37,928.10 203,746 view
P 2019-04-12 2019-04-15 11:49:13.0 TEXAS PACIFIC LAND TRUST TPL KINETICS ASSET MANAGEMENT LLC various various various 10% owner 42 $903.52 $37,947.80 203,704 view
P 2019-04-11 2019-04-12 11:05:08.0 TEXAS PACIFIC LAND TRUST TPL KINETICS ASSET MANAGEMENT LLC various various various 10% owner 42 $911.07 $38,264.90 203,662 view
P 2019-04-10 2019-04-11 11:28:51.0 TEXAS PACIFIC LAND TRUST TPL KINETICS ASSET MANAGEMENT LLC various various various 10% owner 42 $874.06 $36,710.50 203,620 view
P 2019-04-09 2019-04-10 11:35:56.0 TEXAS PACIFIC LAND TRUST TPL KINETICS ASSET MANAGEMENT LLC various various 10% owner director 36 $821.55 $29,575.80 203,578 view
P 2019-04-08 2019-04-09 11:55:06.0 TEXAS PACIFIC LAND TRUST TPL KINETICS ASSET MANAGEMENT LLC various various various 10% owner 7 $814.50 $5,701.50 203,542 view
P 2019-04-05 2019-04-08 11:04:02.0 TEXAS PACIFIC LAND TRUST TPL KINETICS ASSET MANAGEMENT LLC various various various 10% owner 42 $792.27 $33,275.30 203,535 view
P 2019-04-03 2019-04-04 11:42:38.0 TEXAS PACIFIC LAND TRUST TPL KINETICS ASSET MANAGEMENT LLC various various various 10% owner 42 $797.88 $33,511.00 201,977 view
P 2019-04-02 2019-04-03 11:50:38.0 TEXAS PACIFIC LAND TRUST TPL KINETICS ASSET MANAGEMENT LLC various various various 10% owner 42 $801.16 $33,648.70 201,935 view
P 2019-04-01 2019-04-02 11:32:10.0 TEXAS PACIFIC LAND TRUST TPL KINETICS ASSET MANAGEMENT LLC various various various 10% owner 42 $784.30 $32,940.60 201,893 view
P 2019-03-29 2019-04-01 11:49:03.0 TEXAS PACIFIC LAND TRUST TPL KINETICS ASSET MANAGEMENT LLC various various various 10% owner 42 $773.48 $32,486.20 201,851 view
P 2019-03-28 2019-03-29 11:56:39.0 TEXAS PACIFIC LAND TRUST TPL KINETICS ASSET MANAGEMENT LLC various various various 10% owner 7 $774.83 $5,423.81 201,809 view
P 2019-03-27 2019-03-28 11:58:47.0 TEXAS PACIFIC LAND TRUST TPL KINETICS ASSET MANAGEMENT LLC various various various 10% owner 42 $774.38 $32,524.00 201,802 view
P 2019-03-26 2019-03-27 11:34:02.0 TEXAS PACIFIC LAND TRUST TPL KINETICS ASSET MANAGEMENT LLC various various various 10% owner 42 $764.28 $32,099.80 201,760 view
P 2019-03-25 2019-03-26 13:24:27.0 TEXAS PACIFIC LAND TRUST TPL KINETICS ASSET MANAGEMENT LLC various various various 10% owner 42 $725.36 $30,465.10 201,718 view
P 2019-03-22 2019-03-25 11:57:40.0 TEXAS PACIFIC LAND TRUST TPL KINETICS ASSET MANAGEMENT LLC various various various 10% owner 42 $751.10 $31,546.20 201,676 view
P 2019-03-21 2019-03-22 12:32:07.0 TEXAS PACIFIC LAND TRUST TPL KINETICS ASSET MANAGEMENT LLC various various various 10% owner 42 $767.89 $32,251.40 201,634 view
P 2019-03-20 2019-03-21 16:34:03.0 TEXAS PACIFIC LAND TRUST TPL KINETICS ASSET MANAGEMENT LLC various various various 10% owner 42 $765.98 $32,171.20 201,592 view
P 2019-03-19 2019-03-20 12:29:26.0 TEXAS PACIFIC LAND TRUST TPL KINETICS ASSET MANAGEMENT LLC various various various 10% owner 42 $760.69 $31,949.00 201,550 view
P 2019-03-18 2019-03-19 12:37:48.0 TEXAS PACIFIC LAND TRUST TPL KINETICS ASSET MANAGEMENT LLC various various various 10% owner 42 $741.16 $31,128.60 201,508 view
P 2019-03-15 2019-03-18 16:42:01.0 TEXAS PACIFIC LAND TRUST TPL KINETICS ASSET MANAGEMENT LLC various various various 10% owner 42 $748.14 $31,421.90 201,466 view
P 2018-12-26 2018-12-27 16:11:29.0 TEXAS PACIFIC LAND TRUST TPL Barry David E. other 100 $467.06 $46,705.90 300 view
P 2018-12-04 2018-12-06 16:17:34.0 TEXAS PACIFIC LAND TRUST TPL Packer Robert J CFO 100 $589.00 $58,900.00 200 view
P 2018-12-04 2018-12-06 16:16:25.0 TEXAS PACIFIC LAND TRUST TPL GLOVER TYLER officer (Co-General Agent) 100 $598.00 $59,800.00 100 view
S 2018-11-19 2018-11-21 12:57:42.0 TEXAS PACIFIC LAND TRUST TPL Meyer Maurice III other 500 $607.26 $303,630.00 60,546 view
S 2018-11-15 2018-11-16 16:46:24.0 TEXAS PACIFIC LAND TRUST TPL Meyer Maurice III other 500 $570.00 $285,000.00 61,046 view
S 2018-11-14 2018-11-16 16:46:24.0 TEXAS PACIFIC LAND TRUST TPL Meyer Maurice III other 500 $576.19 $288,095.00 61,546 view
P 2018-10-11 2018-10-12 16:07:09.0 TEXAS PACIFIC LAND TRUST TPL Barry David E. director other 100 $810.00 $81,000.00 200 view
S 2018-10-03 2018-10-04 16:42:53.0 TEXAS PACIFIC LAND TRUST TPL Meyer Maurice III other 109 $874.00 $95,266.00 62,046 view
S 2018-09-26 2018-09-28 16:16:05.0 TEXAS PACIFIC LAND TRUST TPL Meyer Maurice III other 400 $856.00 $342,400.00 62,155 view
S 2018-09-26 2018-09-28 16:16:05.0 TEXAS PACIFIC LAND TRUST TPL Meyer Maurice III other 600 $864.00 $518,400.00 62,555 view
S 2018-09-12 2018-09-14 16:50:21.0 TEXAS PACIFIC LAND TRUST TPL Meyer Maurice III other 500 $835.00 $417,500.00 63,220 view
S 2018-08-27 2018-08-27 16:10:51.0 TEXAS PACIFIC LAND TRUST TPL Meyer Maurice III other 500 $853.00 $426,500.00 63,720 view
S 2018-08-27 2018-08-27 16:10:51.0 TEXAS PACIFIC LAND TRUST TPL Meyer Maurice III other 500 $855.26 $427,632.00 64,220 view
P 2017-03-03 2017-03-06 16:53:38.0 TEXAS PACIFIC LAND TRUST TPL Barry David E. other 100 $292.00 $29,200.00 100 N/A view
P 2017-03-03 2017-03-03 16:24:43.0 TEXAS PACIFIC LAND TRUST TPL Packer Robert J CFO 100 $293.76 $29,376.00 100 N/A view
P 2015-02-03 2015-02-04 10:44:05.0 TEXAS PACIFIC LAND TRUST TPL Norwood James K other 200 $122.72 $24,545.00 1,600 16.28% view
P 2014-12-12 2014-12-15 16:10:45.0 TEXAS PACIFIC LAND TRUST TPL PETERSON DAVID M officer (General Agent) 17 $111.33 $1,892.61 50 3.43% view
P 2014-11-05 2014-11-06 16:14:06.0 TEXAS PACIFIC LAND TRUST TPL PETERSON DAVID M officer (General Agent and CFO) 33 $145.95 $4,816.35 33 -0.73% view
P 2011-12-20 2011-12-22 12:41:24.0 TEXAS PACIFIC LAND TRUST TPL Norwood James K other 100 $41.75 $4,175.00 600 2.20% view
P 2008-10-08 2009-03-04 09:41:06.0 TEXAS PACIFIC LAND TRUST TPL Norwood James K other 300 $26.30 $7,890.00 500 4.94% view
P 2008-10-06 2008-10-08 16:09:32.0 TEXAS PACIFIC LAND TRUST TPL Thomas Roy CEO 500 $33.75 $16,875.00 1,000 -16.53% view
P 2005-10-21 2005-10-25 16:12:03.0 TEXAS PACIFIC LAND TRUST TPL Meyer Maurice III other 100 $119.20 $11,920.00 15,050 25.84% view
* An * after P or S in the Buy/Sell column means the transaction was filed by the insider as open market, but it was marked as private transaction by insidercow's proprietary method
Enter Another Stock Symbol: